Beaver Island, MI

2:31 AM EDT on May 27, 2018 (GMT -0400)
Beaver Island

Weather History for KSJX - February, 2013

Change the Weather History Date:

Thursday, February 28, 2013

  Actual Average Record
Temperature  
Mean Temperature 26 °F -  
Max Temperature 32 °F 31 °F 45 °F (1983)
Min Temperature 21 °F 16 °F -20 °F (2014)
Degree Days  
Heating Degree Days 38    
Moisture  
Dew Point 21 °F    
Average Humidity 77    
Maximum Humidity 93    
Minimum Humidity 67    
Precipitation  
Precipitation 0.00 in - - ()
Sea Level Pressure  
Sea Level Pressure 29.96 in    
Wind  
Wind Speed 11 mph (North)    
Max Wind Speed 15 mph    
Max Gust Speed 25 mph    
Visibility 9 miles    
Events Snow    
Averages and records for this station are not official NWS values.
T = Trace of Precipitation, MM = Missing Value Source: NWS Daily Summary

Daily Weather History Graph

Daily Weather History Graph

Search for Another Location

Airport or City:

Astronomy

Feb. 28, 2013 Rise Set
Actual Time 7:22 AM EST 6:28 PM EST
Civil Twilight 6:52 AM EST 6:57 PM EST
Nautical Twilight 6:17 AM EST 7:32 PM EST
Astronomical Twilight 5:43 AM EST 8:06 PM EST
Moon 10:08 PM EST (2/28) 8:19 AM EST (2/28)
Length of Visible Light 12h 05m
Length of Day
11h 05m
Waning Gibbous, 91% of the Moon is Illuminated
Feb 28
Waning Gibbous
Mar 4
Last Quarter
Mar 11
New
Mar 19
First Quarter
Mar 27
Full

Hourly Weather History & Observations

Time (EST) Temp. Windchill Dew Point Humidity Pressure Visibility Wind Dir Wind Speed Gust Speed Precip Events Conditions
12:02 AM - - - N/A% - 7.0 mi North 9.2 mph 17.3 mph N/A   Overcast
12:17 AM - - - N/A% - 10.0 mi North 9.2 mph 18.4 mph N/A   Scattered Clouds
1:58 AM - - - N/A% - - North - - N/A   Unknown
2:33 AM - - - N/A% - - North 11.5 mph 20.7 mph N/A   Unknown
2:59 AM 32.0 °F 24.2 °F 28.4 °F 87% - 10.0 mi North 9.2 mph 21.9 mph N/A   Overcast
3:17 AM - - - N/A% - 10.0 mi North 8.1 mph 17.3 mph N/A   Overcast
3:42 AM - - - N/A% - 7.0 mi North 10.4 mph 19.6 mph N/A   Unknown
3:57 AM - - - N/A% - - North 11.5 mph 17.3 mph N/A   Unknown
4:40 AM - - - N/A% - - North 10.4 mph 18.4 mph N/A   Unknown
4:58 AM 30.2 °F 21.3 °F 28.4 °F 93% 29.78 in 10.0 mi North 10.4 mph 17.3 mph N/A   Overcast
5:18 AM 30.2 °F 21.9 °F 28.4 °F 93% 29.78 in 10.0 mi North 9.2 mph 16.1 mph N/A   Overcast
6:11 AM - - - N/A% - - North 11.5 mph 19.6 mph N/A   Unknown
6:17 AM - - - N/A% - 7.0 mi North 10.4 mph 16.1 mph N/A   Scattered Clouds
6:37 AM - - - N/A% - 4.0 mi North 6.9 mph 16.1 mph N/A   Unknown
6:58 AM - - - N/A% - 7.0 mi North 10.4 mph 16.1 mph N/A   Unknown
7:18 AM 30.2 °F 21.9 °F - N/A% - 10.0 mi North 9.2 mph 18.4 mph N/A   Overcast
7:38 AM 30.2 °F 21.3 °F 26.6 °F 86% 29.83 in 7.0 mi North 10.4 mph 21.9 mph N/A   Overcast
8:00 AM 29.8 °F 20.3 °F 26.4 °F 87% 29.84 in 7.0 mi North 11.5 mph 21.9 mph N/A   Overcast
8:16 AM 29.3 °F 19.1 °F 26.1 °F 88% 29.85 in 7.0 mi North 12.7 mph 16.1 mph N/A Snow Light Snow
8:35 AM 28.9 °F 18.6 °F 26.4 °F 90% 29.86 in 1.2 mi North 12.7 mph 16.1 mph N/A Snow Light Snow
8:56 AM 28.4 °F 19.7 °F 26.6 °F 93% 29.87 in 1.5 mi NNW 9.2 mph 16.1 mph N/A Snow Light Snow
9:16 AM 28.9 °F 18.6 °F 26.6 °F 91% 29.87 in 2.5 mi North 12.7 mph 17.3 mph N/A Snow Light Snow
9:35 AM 28.9 °F 19.8 °F 25.7 °F 88% 29.88 in 7.0 mi North 10.4 mph 17.3 mph N/A   Overcast
9:56 AM 29.1 °F 18.9 °F 25.0 °F 85% 29.88 in 10.0 mi North 12.7 mph 20.7 mph N/A   Overcast
10:16 AM 29.3 °F 18.2 °F 24.8 °F 83% 29.89 in 10.0 mi North 15.0 mph 25.3 mph N/A   Overcast
10:35 AM 29.1 °F 20.0 °F 24.4 °F 83% 29.89 in 10.0 mi NNE 10.4 mph 18.4 mph N/A   Overcast
10:56 AM 29.1 °F 20.6 °F 23.9 °F 81% 29.90 in 10.0 mi North 9.2 mph 18.4 mph N/A   Overcast
11:16 AM 29.8 °F 19.8 °F 24.1 °F 79% 29.90 in 10.0 mi North 12.7 mph 17.3 mph N/A   Overcast
11:36 AM 29.7 °F 19.6 °F 23.4 °F 77% 29.91 in 10.0 mi North 12.7 mph 21.9 mph N/A   Overcast
11:56 AM 30.0 °F 19.5 °F 23.0 °F 75% 29.91 in 10.0 mi North 13.8 mph 20.7 mph N/A   Overcast
12:16 PM 29.3 °F 18.2 °F 23.2 °F 78% 29.92 in 10.0 mi North 15.0 mph 18.4 mph N/A   Overcast
12:36 PM 28.9 °F 17.7 °F 22.1 °F 76% 29.92 in 10.0 mi North 15.0 mph 21.9 mph N/A   Overcast
12:56 PM 29.1 °F 19.4 °F 22.1 °F 75% 29.92 in 10.0 mi North 11.5 mph 23.0 mph N/A   Overcast
1:16 PM 29.1 °F 17.9 °F 21.9 °F 74% 29.93 in 10.0 mi NNE 15.0 mph 23.0 mph N/A   Overcast
1:36 PM 29.1 °F 19.4 °F 21.6 °F 73% 29.93 in 10.0 mi North 11.5 mph 20.7 mph N/A   Overcast
1:56 PM 29.3 °F 19.6 °F 21.6 °F 73% 29.93 in 10.0 mi North 11.5 mph 19.6 mph N/A   Overcast
2:16 PM 29.1 °F 20.0 °F 21.7 °F 74% 29.94 in 10.0 mi North 10.4 mph 17.3 mph N/A   Overcast
2:36 PM 29.3 °F 18.6 °F 21.2 °F 72% 29.94 in 10.0 mi North 13.8 mph 17.3 mph N/A   Overcast
2:55 PM 29.3 °F 20.2 °F 21.0 °F 71% 29.95 in 10.0 mi North 10.4 mph - N/A   Overcast
3:16 PM 29.8 °F 20.9 °F 20.5 °F 68% 29.95 in 10.0 mi North 10.4 mph 19.6 mph N/A   Overcast
3:36 PM 29.1 °F 17.9 °F 19.9 °F 69% 29.96 in 10.0 mi North 15.0 mph 23.0 mph N/A   Overcast
3:55 PM 29.3 °F 19.1 °F 19.6 °F 67% 29.97 in 10.0 mi NNE 12.7 mph 23.0 mph N/A   Overcast
4:16 PM 28.4 °F 19.1 °F 20.3 °F 72% 29.97 in 10.0 mi NNW 10.4 mph 20.7 mph N/A   Overcast
4:36 PM 28.4 °F 19.1 °F 20.7 °F 73% 29.98 in 10.0 mi NNW 10.4 mph 19.6 mph N/A   Overcast
4:55 PM 28.0 °F 18.6 °F 20.5 °F 73% 29.99 in 10.0 mi North 10.4 mph 17.3 mph N/A   Overcast
5:16 PM 28.0 °F 19.3 °F 20.3 °F 73% 29.99 in 10.0 mi NNW 9.2 mph 16.1 mph N/A   Overcast
5:35 PM 27.7 °F 19.6 °F 20.1 °F 73% 30.00 in 10.0 mi North 8.1 mph 16.1 mph N/A   Overcast
5:56 PM 27.1 °F 16.4 °F 19.9 °F 74% 30.00 in 10.0 mi North 12.7 mph 19.6 mph N/A   Mostly Cloudy
6:16 PM 27.0 °F 17.3 °F 19.4 °F 73% 30.02 in 10.0 mi NNW 10.4 mph 16.1 mph N/A   Scattered Clouds
7:16 PM 26.1 °F 16.2 °F 19.4 °F 76% 30.04 in 10.0 mi North 10.4 mph 16.1 mph N/A   Clear
7:36 PM 25.7 °F 17.1 °F 18.9 °F 75% 30.05 in 10.0 mi North 8.1 mph - N/A   Clear
7:56 PM 25.5 °F 16.2 °F 18.3 °F 74% 30.06 in 10.0 mi North 9.2 mph 16.1 mph N/A   Clear
8:15 PM 25.3 °F 15.3 °F 17.6 °F 72% 30.06 in 10.0 mi North 10.4 mph 17.3 mph N/A   Clear
8:36 PM 25.2 °F 13.9 °F 17.1 °F 71% 30.06 in 10.0 mi North 12.7 mph 18.4 mph N/A   Clear
8:56 PM 24.8 °F 12.9 °F 16.7 °F 71% 30.06 in 10.0 mi North 13.8 mph 20.7 mph N/A   Clear
9:15 PM 24.1 °F 12.5 °F 16.3 °F 72% 30.07 in 10.0 mi North 12.7 mph 17.3 mph N/A   Clear
9:36 PM 23.9 °F 12.9 °F 15.8 °F 71% 30.08 in 10.0 mi NNE 11.5 mph 17.3 mph N/A   Clear
10:15 PM 23.5 °F 12.4 °F 15.6 °F 72% 30.09 in 10.0 mi North 11.5 mph 21.9 mph N/A   Scattered Clouds
10:36 PM 22.8 °F 10.4 °F 15.4 °F 73% 30.09 in 10.0 mi NNE 13.8 mph 23.0 mph N/A   Scattered Clouds
10:55 PM 22.5 °F 10.5 °F 14.9 °F 73% 30.09 in 10.0 mi North 12.7 mph 20.7 mph N/A   Clear
11:16 PM 22.1 °F 10.6 °F 14.9 °F 74% 30.10 in 10.0 mi NNE 11.5 mph 24.2 mph N/A   Mostly Cloudy
11:36 PM 21.9 °F 9.2 °F 14.9 °F 74% 30.10 in 10.0 mi North 13.8 mph 19.6 mph N/A   Overcast
11:56 PM 21.9 °F 9.2 °F 15.3 °F 76% 30.11 in 10.0 mi NNE 13.8 mph 21.9 mph N/A   Overcast